Tracking 23731 objects as of 26-Sep-2021
HD Live streaming from Space Station
objects crossing your sky now

STARLINK-2318

Track STARLINK-2318 now!
10-day predictions
STARLINK-2318 is classified as:


NORAD ID: 48025
Int'l Code: 2021-024BA
Perigee: 352.6 km
Apogee: 360.5 km
Inclination: 53.0 °
Period: 91.5 minutes
Semi major axis: 6727 km
RCS: Unknown
Launch date: March 24, 2021
Source: United States (US)
Launch site: AIR FORCE EASTERN TEST RANGE (AFETR)
aabbcc
Your satellite tracking list
Your tracking list is empty




NASA's NSSDC Master Catalog

Two Line Element Set (TLE):
1 48025U 21024BA  21269.66670139 -.00270969  00000-0 -19751-2 0  9996
2 48025  53.0455 358.2606 0005878 279.6120 117.2547 15.73324602  3674
Source of the keplerian elements: AFSPC